TIME,DELAY(SENSOR),PRES,OXYGEN,RAWTEMP,T(OPTODE),TCPHASE,FLUOR,BETA(BETA700),BETA(BETA412),BETA(BETA440),CDOM,C(CSC),ED(ED411.90),ED(ED443.80),ED(ED489.40),ED(ED554.70),LU(LU412.20),LU(LU443.80),LU(LU489.40),LU(LU555.00),COMP,TILTX,TILTY,CHECK
1344376978,5801,857.6099853515625000,163.7915039062500000,433.1151123046875000,9.9600648880004880,39.7878990173339840,51,110,102,84,74,15308,2147454802,2147790930,2147572754,2147823094,2147305216,2147455030,2147749019,2148268406,3174,6,14,14447
1344380574,5805,6.4000000953674320,191.8527984619140600,500.6372070312500000,7.8601841926574710,38.9891281127929700,52,104,102,84,76,15305,2147434980,2147796790,2147584941,2147831085,2147304539,2147446006,2147758619,2148275913,177,6,14,45110
1344384174,5804,964.0000000000000000,200.0285034179687500,512.0466918945312000,7.5025420188903810,38.6752700805664060,51,106,100,82,76,15303,2147431963,2147794953,2147583396,2147831552,2147304502,2147449490,2147763236,2148276123,2778,6,14,52138
1344387774,5804,9.8999996185302730,203.5260009765625000,514.2031860351562000,7.4348402023315430,38.5000381469726560,51,104,102,82,76,15304,2147434194,2147795172,2147583286,2147832841,2147304164,2147451785,2147757028,2148276297,379,6,14,34809
1344391374,5804,968.0000000000000000,203.5296936035156200,515.1104736328125000,7.4063482284545900,38.5157508850097660,51,103,102,82,76,15304,2147433874,2147796269,2147586523,2147833618,2147307291,2147450605,2147763702,2148279186,3411,6,14,46098
1344394974,5805,9.5000000000000000,203.0431976318359400,515.7794799804688000,7.3853368759155270,38.5562515258789060,50,104,102,83,76,15296,2147435565,2147795209,2147583250,2147831753,2147308324,2147452242,2147758134,2148275885,2,6,14,11330
1344398574,5805,10.1000003814697270,202.8805999755859400,516.1378784179688000,7.3740758895874020,38.5730705261230500,51,103,102,81,75,15290,2147440228,2147797677,2147584841,2147832521,2147308443,2147449206,2147762130,2148275565,575,6,14,61587
1344402174,5805,10.3000001907348630,202.8121948242187500,516.1807250976562000,7.3727321624755860,38.5772209167480500,51,103,103,82,76,15288,2147436909,2147799177,2147582848,2147833782,2147307245,2147450486,2147761801,2148277156,579,6,14,27162
1344405774,5802,997.0000000000000000,205.0502014160156200,518.8416137695312000,7.2891159057617190,38.4895591735839840,50,114,101,82,75,15269,2147441499,2147793563,2147582418,2147832987,2147305453,2147453632,2147763072,2148277942,3292,6,14,58992
1344409374,5806,969.0000000000000000,207.1968994140625000,521.2791137695312000,7.2124748229980470,38.4045906066894500,52,104,102,83,75,15284,2147432786,2147795584,2147581906,2147834413,2147303396,2147450971,2147763099,2148277348,505,6,14,26143
1344412974,5803,10.6999998092651370,207.6329040527343800,520.6785278320312000,7.2313652038574220,38.3680992126464840,51,117,103,86,76,15285,2147434934,2147798427,2147585572,2147831286,2147304941,2147453824,2147762340,2148276297,3546,6,15,4585
1344416574,5803,10.8000001907348630,206.7994995117187500,520.6519165039062000,7.2322010993957520,38.4170799255371100,51,104,103,82,76,15284,2147431926,2147798006,2147584182,2147832246,2147303040,2147446848,2147764608,2148277970,3477,6,14,34778
1344420174,5805,10.8999996185302730,206.5494995117187500,520.5607299804688000,7.2350687980651855,38.4304618835449200,51,105,102,82,75,15283,2147435739,2147798372,2147582976,2147833444,2147306304,2147447762,2147758765,2148279076,113,6,14,47866
1344423774,5803,10.6999998092651370,207.8009033203125000,521.5737304687500000,7.2032108306884770,38.3740005493164060,51,106,102,83,76,15280,2147433280,2147800941,2147580498,2147831753,2147303561,2147448960,2147760118,2148276589,766,6,14,35883
1344427374,5806,10.0000000000000000,210.7001037597656200,523.0454711914062000,7.1569080352783200,38.2293014526367200,50,106,101,82,75,15270,2147432402,2147793645,2147585938,2147833334,2147307977,2147450980,2147761316,2148278144,392,6,14,30859
1344430974,5805,10.5000000000000000,209.9353027343750000,521.8803100585938000,7.1935648918151855,38.2529792785644500,51,105,102,81,75,15271,2147433536,2147796315,2147584082,2147833728,2147306596,2147446418,2147761371,2148276836,3167,6,14,53687
1344434574,5807,1034.0000000000000000,209.5341949462890600,522.8820190429688000,7.1620559692382810,38.2951889038085940,50,106,102,83,74,15269,2147437202,2147796269,2147585572,2147833782,2147304557,2147447606,2147758400,2148278226,59,6,14,10940
1344438174,5804,10.3000001907348630,209.6591033935547000,522.8712768554688000,7.1623902320861820,38.2870597839355500,51,104,103,84,76,15269,2147436708,2147795264,2147582948,2147832128,2147307245,2147449270,2147763382,2148278528,147,6,14,44744
1344441774,5805,10.3999996185302730,209.7487945556640600,522.7553710937500000,7.1660389900207520,38.2798500061035160,51,106,101,81,77,15257,2147435209,2147798957,2147587035,2147836242,2147304521,2147448283,2147763766,2148275108,54,6,14,32433
1344445374,5804,10.3000001907348630,209.2823028564453000,522.5582885742188000,7.1722388267517090,38.3037300109863300,51,104,103,82,76,15267,2147435017,2147795556,2147582738,2147835675,2147303707,2147449408,2147761773,2148279844,175,6,14,56711
1344448974,5805,1040.0000000000000000,209.7032012939453000,522.6923828125000000,7.1680159568786620,38.2812995910644500,52,104,103,82,76,15230,2147436041,2147796480,2147586029,2147834797,2147306870,2147452772,2147765028,2148276452,351,6,14,22744
1344452574,5803,10.8999996185302730,209.7404937744140600,523.3090209960938000,7.1486210823059080,38.2895698547363300,51,104,101,82,77,15264,2147431323,2147795154,2147587026,2147831296,2147306029,2147451017,2147761161,2148275437,354,6,14,47809
1344456174,5803,1126.0000000000000000,209.2740020751953000,522.5767211914062000,7.1716589927673340,38.3047485351562500,52,143,101,80,75,15264,2147431872,2147793572,2147583113,2147831305,2147306221,2147453184,2147761206,2148277851,117,6,14,1742
1344459774,5804,1120.0000000000000000,209.2319946289062500,522.7963256835938000,7.1647491455078125,38.3105583190918000,51,105,102,80,76,15265,2147435483,2147797778,2147583661,2147832731,2147306441,2147451154,2147764644,2148277778,2436,6,15,31705
1344463374,5804,1148.0000000000000000,209.5097961425781200,521.7791137695312000,7.1967492103576660,38.2768211364746100,51,105,101,81,76,15264,2147436388,2147799122,2147584987,2147833344,2147304036,2147449883,2147760393,2148279104,3510,6,14,47883
1344466974,5803,11.6999998092651370,209.1985015869140600,521.9005126953125000,7.1929321289062500,38.2964897155761700,51,105,103,83,75,15261,2147437385,2147794422,2147586880,2147832420,2147303652,2147449389,2147759872,2148278710,192,6,14,25871
1344470574,5804,1031.0000000000000000,208.8657073974609400,522.3903808593750000,7.1775188446044920,38.3256416320800800,51,105,102,83,75,15262,2147434093,2147794112,2147585216,2147835456,2147302208,2147453668,2147760603,2148278445,389,6,14,17295
1344474174,5804,10.6000003814697270,208.2873992919922000,521.8507080078125000,7.1944961547851560,38.3497390747070300,51,106,102,83,75,15263,2147436800,2147792073,2147583844,2147827949,2147299346,2147446171,2147758802,2148276918,486,6,14,5361
1344477774,5805,11.3999996185302730,207.5332031250000000,522.3115234375000000,7.1800041198730470,38.4022102355957000,51,105,103,82,75,15259,2147436763,2147790765,2147583058,2147833737,2147304292,2147448466,2147765942,2148278171,3212,6,14,34022
1344481374,5806,1101.0000000000000000,209.1479034423828000,523.0460205078125000,7.1568927764892580,38.3205604553222660,51,107,101,82,76,15257,2147439277,2147794651,2147583369,2147834002,2147306578,2147446985,2147763840,2148279058,6,6,14,57949
1344484974,5806,11.1999998092651370,209.7391967773437500,522.6276245117188000,7.1700592041015625,38.2779312133789060,51,106,102,82,76,15259,2147436681,2147798537,2147584740,2147833929,2147307126,2147445449,2147764260,2148277138,3256,6,14,29258
1344488574,5803,1014.0000000000000000,210.6775970458984400,524.7280883789062000,7.1039562225341800,38.2607803344726560,51,106,102,82,76,15258,2147437915,2147795730,2147585462,2147832091,2147303286,2147449216,2147761526,2148279844,3510,6,14,26656
1344492174,5804,10.0000000000000000,211.3869934082031200,524.8704223632812000,7.0994777679443360,38.2221107482910160,51,109,103,82,75,15256,2147438482,2147799021,2147587117,2147833618,2147303058,2147453101,2147764964,2148279332,234,6,14,22309
1344495774,5804,1083.0000000000000000,213.0697021484375000,526.3469238281250000,7.0529961585998535,38.1497001647949200,51,108,103,82,76,15244,2147431789,2147797092,2147584347,2147834870,2147306121,2147446720,2147758637,2148276141,426,6,14,58767
1344499374,5805,10.5000000000000000,211.8880004882812500,527.2440795898438000,7.0247402191162110,38.2348594665527340,52,106,105,83,76,15238,2147434596,2147800164,2147585737,2147832027,2147304905,2147449280,2147763849,2148279826,3464,6,14,54336
1344502974,5806,1102.0000000000000000,211.7870941162109400,527.1071166992188000,7.0290570259094240,38.2379684448242200,52,106,102,83,77,15236,2147435318,2147798884,2147584941,2147835364,2147306861,2147453513,2147763730,2148275812,88,6,14,42579
1344506574,5804,11.3999996185302730,213.0493011474609400,526.5280761718750000,7.0472888946533200,38.1546897888183600,51,106,103,83,75,15244,2147430994,2147796443,2147588013,2147835437,2147306944,2147447085,2147762020,2148279030,135,6,15,15355
1344510174,5805,1092.0000000000000000,212.1566009521484400,526.3408813476562000,7.0531811714172360,38.2030792236328100,51,109,103,83,76,15235,2147436809,2147794148,2147585188,2147833590,2147305435,2147446793,2147761453,2148277513,163,6,15,54203
1344513774,5804,10.8999996185302730,211.4297027587890600,525.5864257812500000,7.0769391059875490,38.2321395874023440,51,111,101,83,76,15236,2147430628,2147797293,2147587748,2147832758,2147303469,2147453101,2147766006,2148278555,251,6,14,65024
1344517374,5800,11.1999998092651370,211.0052947998047000,525.3657836914062000,7.0838809013366700,38.2522811889648440,51,105,102,82,75,15237,2147436425,2147794806,2147586294,2147834953,2147305115,2147450249,2147763584,2148278957,2781,6,14,32921
1344519056,5803,10.8999996185302730,212.1181030273437500,525.4573974609375000,7.0809988975524900,38.1894416809082000,51,109,102,82,76,15237,2147434998,2147796726,2147586486,2147833499,2147305417,2147446363,2147765568,2148280192,2683,6,15,26682
